Change the Weather History Date:

Tuesday, April 9, 2013

  Actual Average Record
Temperature  
Mean Temperature 58 °F -  
Max Temperature 71 °F 55 °F 83 °F (1991)
Min Temperature 46 °F 32 °F 21 °F (1977)
Degree Days  
Heating Degree Days 7    
Growing Degree Days 8 (Base 50)    
Moisture  
Dew Point 43 °F    
Average Humidity 71    
Maximum Humidity 100    
Minimum Humidity 36    
Precipitation  
Precipitation 0.04 in - - ()
Sea Level Pressure  
Sea Level Pressure 29.96 in    
Wind  
Wind Speed 7 mph (SW)    
Max Wind Speed 21 mph    
Max Gust Speed 28 mph    
Visibility 8 miles    
Events Rain    
Averages and records for this station are not official NWS values.
T = Trace of Precipitation, MM = Missing Value Source: NWS Daily Summary

Daily Weather History Graph

Daily Weather History Graph

Search for Another Location

Airport or City:

Trip Planner

Search our weather history database for the weather conditions in past years. The results will help you decide how hot, cold, wet, or windy it might be!

Date:

Astronomy

Apr. 09, 2013 Rise Set
Actual Time 6:13 AM EDT 7:20 PM EDT
Civil Twilight 5:44 AM EDT 7:49 PM EDT
Nautical Twilight 5:10 AM EDT 8:23 PM EDT
Astronomical Twilight 4:34 AM EDT 9:00 PM EDT
Moon 5:35 AM EDT (4/9) 6:53 PM EDT (4/9)
Length of Visible Light 14h 04m
Length of Day
13h 06m
Waning Crescent, 1% of the Moon is Illuminated
Apr 9
Waning Crescent
Apr 10
New
Apr 18
First Quarter
Apr 25
Full
May 2
Last Quarter

Hourly Weather History & Observations

Time (EDT) Temp. Windchill Dew Point Humidity Pressure Visibility Wind Dir Wind Speed Gust Speed Precip Events Conditions
12:56 AM 50.0 °F - 37.9 °F 63% 30.10 in 10.0 mi SSE 9.2 mph - N/A   Overcast
1:56 AM 48.9 °F - 37.0 °F 64% 30.07 in 10.0 mi SSE 9.2 mph - N/A   Mostly Cloudy
2:56 AM 48.0 °F - 37.0 °F 66% 30.04 in 10.0 mi South 6.9 mph - N/A   Overcast
3:56 AM 48.0 °F - 37.0 °F 66% 30.01 in 10.0 mi South 5.8 mph - N/A   Mostly Cloudy
4:56 AM 46.9 °F - 37.9 °F 71% 29.97 in 10.0 mi SSE 5.8 mph - N/A   Mostly Cloudy
5:35 AM 46.4 °F 42.4 °F 39.2 °F 76% 29.98 in 10.0 mi NW 8.1 mph - 0.00 in Rain Light Rain
5:56 AM 46.0 °F 43.1 °F 42.1 °F 86% 29.97 in 8.0 mi East 5.8 mph - 0.03 in Rain Light Rain
6:23 AM 46.4 °F - 42.8 °F 87% 29.93 in 10.0 mi Calm Calm - 0.01 in   Overcast
6:56 AM 46.0 °F 43.9 °F 43.0 °F 89% 29.96 in 10.0 mi SE 4.6 mph - 0.01 in   Overcast
7:56 AM 46.9 °F - 44.1 °F 90% 29.94 in 8.0 mi Calm Calm - N/A   Overcast
8:26 AM 46.4 °F - 46.4 °F 100% 29.89 in 3.0 mi Calm Calm - N/A   Overcast
8:33 AM 46.4 °F - 46.4 °F 100% 29.89 in 2.0 mi Calm Calm - N/A   Overcast
8:41 AM 46.4 °F 45.2 °F 46.4 °F 100% 29.89 in 1.5 mi SSW 3.5 mph - N/A   Overcast
8:56 AM 48.0 °F - 46.0 °F 93% 29.93 in 1.0 mi WSW 3.5 mph - N/A   Overcast
9:56 AM 50.0 °F - 46.9 °F 89% 29.91 in 1.0 mi WSW 8.1 mph - N/A   Overcast
10:03 AM 50.0 °F - 48.2 °F 94% 29.87 in 4.0 mi NW 4.6 mph - N/A   Overcast
10:16 AM 50.0 °F - 48.2 °F 94% 29.88 in 3.0 mi WNW 6.9 mph - N/A   Overcast
10:56 AM 55.0 °F - 48.9 °F 80% 29.93 in 6.0 mi WNW 6.9 mph - N/A   Haze
11:56 AM 63.0 °F - 48.9 °F 60% 29.91 in 10.0 mi West 10.4 mph - N/A   Mostly Cloudy
12:56 PM 68.0 °F - 44.1 °F 42% 29.89 in 10.0 mi WNW 12.7 mph 25.3 mph N/A   Scattered Clouds
1:56 PM 70.0 °F - 42.1 °F 36% 29.91 in 10.0 mi WNW 17.3 mph - N/A   Clear
2:56 PM 69.1 °F - 42.1 °F 38% 29.93 in 10.0 mi WNW 20.7 mph 27.6 mph N/A   Scattered Clouds
3:56 PM 68.0 °F - 41.0 °F 37% 29.93 in 10.0 mi West 13.8 mph 23.0 mph N/A   Clear
4:56 PM 66.9 °F - 41.0 °F 39% 29.93 in 10.0 mi West 11.5 mph - N/A   Clear
5:56 PM 64.9 °F - 41.0 °F 42% 29.98 in 10.0 mi West 10.4 mph - N/A   Clear
6:56 PM 61.0 °F - 39.9 °F 46% 29.99 in 10.0 mi West 4.6 mph - N/A   Mostly Cloudy
7:56 PM 60.1 °F - 39.9 °F 47% 30.00 in 10.0 mi WSW 4.6 mph - N/A   Clear
8:56 PM 51.1 °F - 42.1 °F 71% 30.06 in 10.0 mi SE 9.2 mph - N/A   Clear
9:56 PM 48.0 °F - 41.0 °F 77% 30.06 in 10.0 mi ESE 8.1 mph - N/A   Clear
10:56 PM 46.9 °F - 41.0 °F 80% 30.06 in 10.0 mi ESE 6.9 mph - N/A   Mostly Cloudy
11:56 PM 46.9 °F - 39.9 °F 77% 30.00 in 10.0 mi East 6.9 mph - N/A   Partly Cloudy